VIASAT-1

Last updated on Sat Oct 05 2024 00:02:38 GMT+0000 (Coordinated Universal Time)

1 37843U 11059A 24278.39563354 -.00000016 00000+0 00000+0 0 9998 2 37843 0.0203 220.2759 0002368 322.9133 217.7153 1.00274187 41091
UTC large
Height (km)
Speed (km/s)
/
Latitude / Longitude
Inclination (degrees)
Orbital Period (minutes)
Azimuth
Elevation
Range (km)
Doppler Factor

Next 0 passes for location: London (51.5072 / 0.1276)

Sorry there are no passes over London.